Time,TemperatureF,DewpointF,PressureIn,WindDirection,WindDirectionDegrees,WindSpeedMPH,WindSpeedGustMPH,Humidity,HourlyPrecipIn,Conditions,Clouds,dailyrainin,SoftwareType,DateUTC
2013-02-27 00:00:00,41.4,36.6,29.70,ENE,78,3.0,5.0,83,0.00,,,1.28,WeatherCatV1.11B39,2013-02-27 05:00:00,
2013-02-27 00:05:00,41.3,36.8,29.69,ENE,63,6.0,6.0,84,0.00,,,0.00,WeatherCatV1.11B39,2013-02-27 05:05:00,
2013-02-27 00:10:00,41.2,36.7,29.69,NE,51,3.0,5.0,84,0.00,,,0.00,WeatherCatV1.11B39,2013-02-27 05:10:00,
2013-02-27 00:15:00,41.1,36.9,29.70,SSE,147,5.0,8.0,85,0.00,,,0.00,WeatherCatV1.11B39,2013-02-27 05:15:00,
2013-02-27 00:20:00,40.9,37.0,29.70,SE,137,14.0,15.0,86,0.00,,,0.00,WeatherCatV1.11B39,2013-02-27 05:20:00,
2013-02-27 00:25:00,40.5,36.4,29.70,ESE,104,7.0,24.0,85,0.00,,,0.00,WeatherCatV1.11B39,2013-02-27 05:25:00,
2013-02-27 00:29:00,40.2,36.4,29.70,SSE,161,12.0,12.0,86,0.00,,,0.00,WeatherCatV1.11B39,2013-02-27 05:29:00,
2013-02-27 00:34:00,40.1,36.3,29.70,ESE,121,6.0,9.0,86,0.00,,,0.00,WeatherCatV1.11B39,2013-02-27 05:34:00,
2013-02-27 00:39:00,40.1,36.0,29.70,SSE,158,8.0,9.0,85,0.00,,,0.00,WeatherCatV1.11B39,2013-02-27 05:39:00,
2013-02-27 00:44:00,40.0,35.6,29.70,SE,125,1.0,16.0,84,0.00,,,0.00,WeatherCatV1.11B39,2013-02-27 05:44:00,
2013-02-27 00:49:00,40.1,35.4,29.70,East,92,6.0,12.0,83,0.00,,,0.00,WeatherCatV1.11B39,2013-02-27 05:49:00,
2013-02-27 00:54:00,40.1,35.1,29.71,SE,126,9.0,18.0,82,0.00,,,0.00,WeatherCatV1.11B39,2013-02-27 05:54:00,
2013-02-27 00:59:00,40.1,35.1,29.71,ESE,119,5.0,11.0,82,0.00,,,0.00,WeatherCatV1.11B39,2013-02-27 05:59:00,
2013-02-27 01:04:00,40.1,34.7,29.71,East,98,6.0,8.0,81,0.00,,,0.00,WeatherCatV1.11B39,2013-02-27 06:04:00,
2013-02-27 01:09:00,40.2,34.8,29.71,SSE,157,5.0,10.0,81,0.00,,,0.00,WeatherCatV1.11B39,2013-02-27 06:09:00,
2013-02-27 01:14:00,40.2,34.8,29.71,SE,132,4.0,8.0,81,0.00,,,0.00,WeatherCatV1.11B39,2013-02-27 06:14:00,
2013-02-27 01:19:00,40.2,34.8,29.72,South,173,5.0,10.0,81,0.00,,,0.00,WeatherCatV1.11B39,2013-02-27 06:19:00,
2013-02-27 01:24:00,40.2,34.8,29.72,SE,142,5.0,14.0,81,0.00,,,0.00,WeatherCatV1.11B39,2013-02-27 06:24:00,
2013-02-27 01:29:00,40.2,34.8,29.72,SE,130,0.0,5.0,81,0.00,,,0.00,WeatherCatV1.11B39,2013-02-27 06:29:00,
2013-02-27 01:34:00,40.1,34.7,29.72,SE,135,5.0,6.0,81,0.00,,,0.00,WeatherCatV1.11B39,2013-02-27 06:34:00,
2013-02-27 01:39:00,40.1,34.7,29.72,ENE,69,3.0,3.0,81,0.00,,,0.00,WeatherCatV1.11B39,2013-02-27 06:39:00,
2013-02-27 01:44:00,40.1,34.7,29.72,SE,138,4.0,6.0,81,0.00,,,0.00,WeatherCatV1.11B39,2013-02-27 06:44:00,
2013-02-27 01:49:00,40.1,34.4,29.72,ESE,104,2.0,6.0,80,0.00,,,0.00,WeatherCatV1.11B39,2013-02-27 06:49:00,
2013-02-27 01:54:00,40.1,34.7,29.72,South,190,5.0,8.0,81,0.00,,,0.00,WeatherCatV1.11B39,2013-02-27 06:54:00,
2013-02-27 01:59:00,40.1,34.4,29.72,ENE,59,10.0,10.0,80,0.00,,,0.00,WeatherCatV1.11B39,2013-02-27 06:59:00,
2013-02-27 02:02:00,40.2,34.5,29.72,SE,128,9.0,14.0,80,0.00,,,0.00,WeatherCatV1.11B39,2013-02-27 07:02:00,
2013-02-27 02:07:00,40.2,34.5,29.72,SE,125,6.0,16.0,80,0.00,,,0.00,WeatherCatV1.11B39,2013-02-27 07:07:00,
2013-02-27 02:12:00,40.2,34.5,29.72,South,176,4.0,8.0,80,0.00,,,0.00,WeatherCatV1.11B39,2013-02-27 07:12:00,
2013-02-27 02:17:00,40.2,34.2,29.72,East,80,6.0,7.0,79,0.00,,,0.00,WeatherCatV1.11B39,2013-02-27 07:17:00,
2013-02-27 02:22:00,40.2,34.5,29.72,SE,130,5.0,6.0,80,0.00,,,0.00,WeatherCatV1.11B39,2013-02-27 07:22:00,
2013-02-27 02:27:00,40.1,34.4,29.73,SSE,152,5.0,7.0,80,0.00,,,0.00,WeatherCatV1.11B39,2013-02-27 07:27:00,
2013-02-27 02:32:00,40.1,34.4,29.73,SSE,159,4.0,5.0,80,0.00,,,0.00,WeatherCatV1.11B39,2013-02-27 07:32:00,
2013-02-27 02:37:00,40.1,34.4,29.72,SE,138,8.0,8.0,80,0.00,,,0.00,WeatherCatV1.11B39,2013-02-27 07:37:00,
2013-02-27 02:42:00,40.0,34.3,29.72,SSE,159,2.0,6.0,80,0.00,,,0.00,WeatherCatV1.11B39,2013-02-27 07:42:00,
2013-02-27 02:47:00,40.0,34.3,29.72,South,180,1.0,6.0,80,0.00,,,0.00,WeatherCatV1.11B39,2013-02-27 07:47:00,
2013-02-27 02:52:00,40.0,34.3,29.72,ESE,108,9.0,9.0,80,0.00,,,0.00,WeatherCatV1.11B39,2013-02-27 07:52:00,
2013-02-27 02:57:00,40.0,34.0,29.72,ESE,111,8.0,9.0,79,0.00,,,0.00,WeatherCatV1.11B39,2013-02-27 07:57:00,
2013-02-27 03:01:00,40.0,34.0,29.72,East,89,6.0,8.0,79,0.00,,,0.00,WeatherCatV1.11B39,2013-02-27 08:01:00,
2013-02-27 03:06:00,40.0,34.0,29.72,ESE,111,0.0,2.0,79,0.00,,,0.00,WeatherCatV1.11B39,2013-02-27 08:06:00,
2013-02-27 03:11:00,40.0,34.0,29.72,SE,133,2.0,10.0,79,0.00,,,0.00,WeatherCatV1.11B39,2013-02-27 08:11:00,
2013-02-27 03:16:00,40.0,34.0,29.72,SSE,155,4.0,8.0,79,0.00,,,0.00,WeatherCatV1.11B39,2013-02-27 08:16:00,
2013-02-27 03:21:00,39.9,34.2,29.72,SSE,158,0.0,2.0,80,0.00,,,0.00,WeatherCatV1.11B39,2013-02-27 08:21:00,
2013-02-27 03:26:00,39.8,34.1,29.72,ENE,75,5.0,6.0,80,0.00,,,0.00,WeatherCatV1.11B39,2013-02-27 08:26:00,
2013-02-27 03:31:00,39.8,34.1,29.72,East,84,5.0,8.0,80,0.00,,,0.00,WeatherCatV1.11B39,2013-02-27 08:31:00,
2013-02-27 03:36:00,39.7,34.0,29.72,ESE,107,4.0,7.0,80,0.00,,,0.00,WeatherCatV1.11B39,2013-02-27 08:36:00,
2013-02-27 03:41:00,39.7,33.7,29.72,SSE,150,12.0,15.0,79,0.00,,,0.00,WeatherCatV1.11B39,2013-02-27 08:41:00,
2013-02-27 03:46:00,39.7,33.7,29.72,SSE,153,11.0,12.0,79,0.00,,,0.00,WeatherCatV1.11B39,2013-02-27 08:46:00,
2013-02-27 03:51:00,39.7,33.7,29.71,SE,127,8.0,12.0,79,0.00,,,0.00,WeatherCatV1.11B39,2013-02-27 08:51:00,
2013-02-27 03:56:00,39.7,34.0,29.71,SSE,147,7.0,8.0,80,0.00,,,0.00,WeatherCatV1.11B39,2013-02-27 08:56:00,
2013-02-27 04:01:00,39.6,33.9,29.71,SSE,153,4.0,8.0,80,0.00,,,0.00,WeatherCatV1.11B39,2013-02-27 09:01:00,
2013-02-27 04:06:00,39.6,33.9,29.71,SE,139,2.0,8.0,80,0.00,,,0.00,WeatherCatV1.11B39,2013-02-27 09:06:00,
2013-02-27 04:11:00,39.5,34.2,29.72,ESE,115,5.0,8.0,81,0.00,,,0.00,WeatherCatV1.11B39,2013-02-27 09:11:00,
2013-02-27 04:16:00,39.4,34.4,29.72,SSE,159,10.0,12.0,82,0.00,,,0.00,WeatherCatV1.11B39,2013-02-27 09:16:00,
2013-02-27 04:21:00,39.4,34.4,29.72,SSE,165,9.0,11.0,82,0.00,,,0.00,WeatherCatV1.11B39,2013-02-27 09:21:00,
2013-02-27 04:26:00,39.3,34.6,29.73,East,97,8.0,11.0,83,0.00,,,0.00,WeatherCatV1.11B39,2013-02-27 09:26:00,
2013-02-27 04:31:00,39.3,34.6,29.73,ESE,110,1.0,5.0,83,0.00,,,0.00,WeatherCatV1.11B39,2013-02-27 09:31:00,
2013-02-27 04:36:00,39.2,34.5,29.73,SSE,159,2.0,6.0,83,0.00,,,0.00,WeatherCatV1.11B39,2013-02-27 09:36:00,
2013-02-27 04:41:00,39.2,34.2,29.73,SSW,192,11.0,13.0,82,0.00,,,0.00,WeatherCatV1.11B39,2013-02-27 09:41:00,
2013-02-27 04:46:00,39.2,34.2,29.74,SSE,157,5.0,15.0,82,0.00,,,0.00,WeatherCatV1.11B39,2013-02-27 09:46:00,
2013-02-27 04:51:00,39.1,34.1,29.74,ESE,123,7.0,12.0,82,0.00,,,0.00,WeatherCatV1.11B39,2013-02-27 09:51:00,
2013-02-27 04:56:00,39.1,33.8,29.74,SE,142,7.0,10.0,81,0.00,,,0.00,WeatherCatV1.11B39,2013-02-27 09:56:00,
2013-02-27 05:01:00,39.0,33.7,29.74,ESE,116,5.0,10.0,81,0.00,,,0.00,WeatherCatV1.11B39,2013-02-27 10:01:00,
2013-02-27 05:06:00,39.0,33.7,29.74,SE,143,5.0,13.0,81,0.00,,,0.00,WeatherCatV1.11B39,2013-02-27 10:06:00,
2013-02-27 05:11:00,39.0,33.7,29.75,SSW,199,7.0,11.0,81,0.00,,,0.00,WeatherCatV1.11B39,2013-02-27 10:11:00,
2013-02-27 05:16:00,39.0,33.4,29.75,South,175,7.0,8.0,80,0.00,,,0.00,WeatherCatV1.11B39,2013-02-27 10:16:00,
2013-02-27 05:21:00,39.0,33.4,29.75,ESE,121,1.0,5.0,80,0.00,,,0.00,WeatherCatV1.11B39,2013-02-27 10:21:00,
2013-02-27 05:26:00,39.0,33.4,29.75,SSE,157,2.0,11.0,80,0.00,,,0.00,WeatherCatV1.11B39,2013-02-27 10:26:00,
2013-02-27 05:31:00,39.0,33.4,29.75,SE,131,7.0,7.0,80,0.00,,,0.00,WeatherCatV1.11B39,2013-02-27 10:31:00,
2013-02-27 05:36:00,39.0,33.0,29.75,SSE,165,2.0,6.0,79,0.00,,,0.00,WeatherCatV1.11B39,2013-02-27 10:36:00,
2013-02-27 05:41:00,39.0,33.0,29.75,ESE,116,2.0,5.0,79,0.00,,,0.00,WeatherCatV1.11B39,2013-02-27 10:41:00,
2013-02-27 05:46:00,39.0,32.7,29.75,SE,124,2.0,11.0,78,0.00,,,0.00,WeatherCatV1.11B39,2013-02-27 10:46:00,
2013-02-27 05:51:00,39.0,32.4,29.75,SSE,160,7.0,11.0,77,0.00,,,0.00,WeatherCatV1.11B39,2013-02-27 10:51:00,
2013-02-27 05:56:00,39.0,32.4,29.75,SE,138,11.0,15.0,77,0.00,,,0.00,WeatherCatV1.11B39,2013-02-27 10:56:00,
2013-02-27 06:00:00,39.1,32.5,29.75,South,186,9.0,13.0,77,0.00,,,0.00,WeatherCatV1.11B39,2013-02-27 11:00:00,
2013-02-27 06:05:00,39.0,32.4,29.75,SE,144,4.0,9.0,77,0.00,,,0.00,WeatherCatV1.11B39,2013-02-27 11:05:00,
2013-02-27 06:06:00,39.1,32.5,29.76,SSE,151,12.0,13.0,77,0.00,,,0.00,WeatherCatV1.11B39,2013-02-27 11:06:00,
2013-02-27 06:11:00,39.0,32.4,29.76,South,170,4.0,9.0,77,0.00,,,0.00,WeatherCatV1.11B39,2013-02-27 11:11:00,
2013-02-27 06:16:00,38.9,32.3,29.76,SE,124,2.0,6.0,77,0.00,,,0.00,WeatherCatV1.11B39,2013-02-27 11:16:00,
2013-02-27 06:21:00,38.9,32.3,29.75,SSE,150,8.0,11.0,77,0.00,,,0.00,WeatherCatV1.11B39,2013-02-27 11:21:00,
2013-02-27 06:26:00,38.9,32.3,29.75,ESE,117,6.0,8.0,77,0.00,,,0.00,WeatherCatV1.11B39,2013-02-27 11:26:00,
2013-02-27 06:31:00,38.8,32.5,29.75,SE,128,6.0,7.0,78,0.00,,,0.00,WeatherCatV1.11B39,2013-02-27 11:31:00,
2013-02-27 06:36:00,38.8,32.2,29.75,SSE,147,11.0,14.0,77,0.00,,,0.00,WeatherCatV1.11B39,2013-02-27 11:36:00,
2013-02-27 06:41:00,38.8,32.2,29.76,SSE,161,4.0,10.0,77,0.00,,,0.00,WeatherCatV1.11B39,2013-02-27 11:41:00,
2013-02-27 06:46:00,38.8,32.5,29.76,SSE,153,10.0,11.0,78,0.00,,,0.00,WeatherCatV1.11B39,2013-02-27 11:46:00,
2013-02-27 06:51:00,38.8,32.2,29.76,SSE,157,7.0,18.0,77,0.00,,,0.00,WeatherCatV1.11B39,2013-02-27 11:51:00,
2013-02-27 06:56:00,38.8,32.2,29.76,ESE,105,7.0,12.0,77,0.00,,,0.00,WeatherCatV1.11B39,2013-02-27 11:56:00,
2013-02-27 07:01:00,38.7,32.4,29.76,South,176,5.0,8.0,78,0.00,,,0.00,WeatherCatV1.11B39,2013-02-27 12:01:00,
2013-02-27 07:06:00,38.7,32.4,29.76,SSE,149,7.0,10.0,78,0.00,,,0.00,WeatherCatV1.11B39,2013-02-27 12:06:00,
2013-02-27 07:11:00,38.7,32.4,29.76,SSE,148,2.0,11.0,78,0.00,,,0.00,WeatherCatV1.11B39,2013-02-27 12:11:00,
2013-02-27 07:16:00,38.6,32.7,29.76,SSE,163,4.0,8.0,79,0.00,,,0.00,WeatherCatV1.11B39,2013-02-27 12:16:00,
2013-02-27 07:21:00,38.6,32.7,29.76,SSE,148,6.0,7.0,79,0.00,,,0.00,WeatherCatV1.11B39,2013-02-27 12:21:00,
2013-02-27 07:26:00,38.6,32.3,29.76,East,90,5.0,5.0,78,0.00,,,0.00,WeatherCatV1.11B39,2013-02-27 12:26:00,
2013-02-27 07:31:00,38.6,32.3,29.76,ESE,123,4.0,8.0,78,0.00,,,0.00,WeatherCatV1.11B39,2013-02-27 12:31:00,
2013-02-27 07:36:00,38.7,32.4,29.76,SE,138,2.0,12.0,78,0.00,,,0.00,WeatherCatV1.11B39,2013-02-27 12:36:00,
2013-02-27 07:41:00,38.7,32.4,29.77,SSE,167,5.0,7.0,78,0.00,,,0.00,WeatherCatV1.11B39,2013-02-27 12:41:00,
2013-02-27 07:46:00,38.7,32.4,29.77,SE,126,4.0,12.0,78,0.00,,,0.00,WeatherCatV1.11B39,2013-02-27 12:46:00,
2013-02-27 07:51:00,38.7,32.4,29.77,SE,134,5.0,5.0,78,0.00,,,0.00,WeatherCatV1.11B39,2013-02-27 12:51:00,
2013-02-27 07:56:00,38.7,32.4,29.77,SE,143,6.0,8.0,78,0.00,,,0.00,WeatherCatV1.11B39,2013-02-27 12:56:00,
2013-02-27 08:01:00,38.7,32.8,29.77,ESE,117,4.0,4.0,79,0.00,,,0.00,WeatherCatV1.11B39,2013-02-27 13:01:00,
2013-02-27 08:06:00,38.8,32.5,29.77,SSE,150,0.0,5.0,78,0.00,,,0.00,WeatherCatV1.11B39,2013-02-27 13:06:00,
2013-02-27 08:11:00,38.8,32.5,29.77,ESE,123,7.0,9.0,78,0.00,,,0.00,WeatherCatV1.11B39,2013-02-27 13:11:00,
2013-02-27 08:16:00,38.8,32.9,29.78,SE,133,4.0,7.0,79,0.00,,,0.00,WeatherCatV1.11B39,2013-02-27 13:16:00,
2013-02-27 08:21:00,38.9,33.3,29.78,ENE,67,1.0,2.0,80,0.00,,,0.00,WeatherCatV1.11B39,2013-02-27 13:21:00,
2013-02-27 08:26:00,39.0,33.0,29.79,SE,135,6.0,7.0,79,0.00,,,0.00,WeatherCatV1.11B39,2013-02-27 13:26:00,
2013-02-27 08:31:00,39.1,32.8,29.79,ESE,111,4.0,11.0,78,0.00,,,0.00,WeatherCatV1.11B39,2013-02-27 13:31:00,
2013-02-27 08:36:00,39.2,33.2,29.79,ESE,123,2.0,4.0,79,0.00,,,0.00,WeatherCatV1.11B39,2013-02-27 13:36:00,
2013-02-27 08:40:00,39.3,33.0,29.79,SE,140,2.0,6.0,78,0.00,,,0.00,WeatherCatV1.11B39,2013-02-27 13:40:00,
2013-02-27 08:45:00,39.3,33.0,29.79,South,173,5.0,9.0,78,0.00,,,0.00,WeatherCatV1.11B39,2013-02-27 13:45:00,
2013-02-27 08:50:00,39.4,33.1,29.79,SE,133,9.0,9.0,78,0.00,,,0.00,WeatherCatV1.11B39,2013-02-27 13:50:00,
2013-02-27 08:55:00,39.5,33.2,29.79,ESE,120,2.0,7.0,78,0.00,,,0.00,WeatherCatV1.11B39,2013-02-27 13:55:00,
2013-02-27 09:00:00,39.6,33.0,29.80,East,94,2.0,7.0,77,0.00,,,0.00,WeatherCatV1.11B39,2013-02-27 14:00:00,
2013-02-27 09:05:00,39.7,33.1,29.80,South,184,10.0,12.0,77,0.00,,,0.00,WeatherCatV1.11B39,2013-02-27 14:05:00,
2013-02-27 09:10:00,39.9,33.6,29.80,East,81,4.0,6.0,78,0.00,,,0.00,WeatherCatV1.11B39,2013-02-27 14:10:00,
2013-02-27 09:15:00,40.0,33.7,29.81,ESE,107,6.0,8.0,78,0.00,,,0.00,WeatherCatV1.11B39,2013-02-27 14:15:00,
2013-02-27 09:20:00,40.1,33.8,29.81,SE,130,7.0,7.0,78,0.00,,,0.00,WeatherCatV1.11B39,2013-02-27 14:20:00,
2013-02-27 09:25:00,40.2,33.2,29.81,SE,141,4.0,10.0,76,0.00,,,0.00,WeatherCatV1.11B39,2013-02-27 14:25:00,
2013-02-27 09:30:00,40.3,33.7,29.81,ENE,72,6.0,6.0,77,0.00,,,0.00,WeatherCatV1.11B39,2013-02-27 14:30:00,
2013-02-27 09:35:00,40.6,34.3,29.81,SE,127,2.0,5.0,78,0.00,,,0.00,WeatherCatV1.11B39,2013-02-27 14:35:00,
2013-02-27 09:40:00,40.6,33.6,29.81,ESE,111,4.0,9.0,76,0.00,,,0.00,WeatherCatV1.11B39,2013-02-27 14:40:00,
2013-02-27 09:45:00,40.7,34.1,29.81,East,85,3.0,9.0,77,0.00,,,0.00,WeatherCatV1.11B39,2013-02-27 14:45:00,
2013-02-27 09:50:00,40.9,33.9,29.81,ESE,112,5.0,8.0,76,0.00,,,0.00,WeatherCatV1.11B39,2013-02-27 14:50:00,
2013-02-27 09:55:00,41.0,33.7,29.81,SE,124,5.0,12.0,75,0.00,,,0.00,WeatherCatV1.11B39,2013-02-27 14:55:00,
2013-02-27 10:00:00,41.2,33.6,29.81,South,178,8.0,12.0,74,0.00,,,0.00,WeatherCatV1.11B39,2013-02-27 15:00:00,
2013-02-27 10:05:00,41.3,34.0,29.81,South,174,8.0,11.0,75,0.00,,,0.00,WeatherCatV1.11B39,2013-02-27 15:05:00,
2013-02-27 10:10:00,41.3,33.6,29.81,SSE,165,11.0,13.0,74,0.00,,,0.00,WeatherCatV1.11B39,2013-02-27 15:10:00,
2013-02-27 10:15:00,41.4,33.7,29.81,SSW,200,8.0,12.0,74,0.00,,,0.00,WeatherCatV1.11B39,2013-02-27 15:15:00,
2013-02-27 10:20:00,41.5,33.8,29.81,South,172,7.0,12.0,74,0.00,,,0.00,WeatherCatV1.11B39,2013-02-27 15:20:00,
2013-02-27 10:25:00,41.8,33.8,29.80,ESE,123,9.0,14.0,73,0.00,,,0.00,WeatherCatV1.11B39,2013-02-27 15:25:00,
2013-02-27 10:30:00,41.9,33.9,29.80,South,170,10.0,17.0,73,0.00,,,0.00,WeatherCatV1.11B39,2013-02-27 15:30:00,
2013-02-27 10:35:00,42.0,34.3,29.80,ENE,72,11.0,12.0,74,0.00,,,0.00,WeatherCatV1.11B39,2013-02-27 15:35:00,
2013-02-27 10:40:00,42.1,34.1,29.81,ENE,74,8.0,9.0,73,0.00,,,0.00,WeatherCatV1.11B39,2013-02-27 15:40:00,
2013-02-27 10:45:00,42.1,34.1,29.81,South,171,4.0,8.0,73,0.00,,,0.00,WeatherCatV1.11B39,2013-02-27 15:45:00,
2013-02-27 10:50:00,42.2,34.2,29.82,South,183,7.0,12.0,73,0.00,,,0.00,WeatherCatV1.11B39,2013-02-27 15:50:00,
2013-02-27 10:55:00,42.3,34.3,29.81,South,178,4.0,7.0,73,0.00,,,0.00,WeatherCatV1.11B39,2013-02-27 15:55:00,
2013-02-27 11:00:00,42.5,34.8,29.82,South,172,9.0,9.0,74,0.00,,,0.00,WeatherCatV1.11B39,2013-02-27 16:00:00,
2013-02-27 11:05:00,42.9,34.9,29.81,ESE,108,6.0,12.0,73,0.00,,,0.00,WeatherCatV1.11B39,2013-02-27 16:05:00,
2013-02-27 11:10:00,43.1,34.0,29.81,SSW,197,16.0,22.0,70,0.00,,,0.00,WeatherCatV1.11B39,2013-02-27 16:10:00,
2013-02-27 11:15:00,43.2,34.4,29.82,SSE,158,5.0,5.0,71,0.00,,,0.00,WeatherCatV1.11B39,2013-02-27 16:15:00,
2013-02-27 11:20:00,43.2,34.1,29.81,SSW,198,5.0,13.0,70,0.00,,,0.00,WeatherCatV1.11B39,2013-02-27 16:20:00,
2013-02-27 11:25:00,43.5,34.4,29.81,ESE,111,7.0,15.0,70,0.00,,,0.00,WeatherCatV1.11B39,2013-02-27 16:25:00,
2013-02-27 11:30:00,43.8,34.3,29.81,SE,126,8.0,8.0,69,0.00,,,0.00,WeatherCatV1.11B39,2013-02-27 16:30:00,
2013-02-27 11:35:00,44.1,34.2,29.81,SE,128,7.0,12.0,68,0.00,,,0.00,WeatherCatV1.11B39,2013-02-27 16:35:00,
2013-02-27 11:40:00,44.2,34.3,29.81,SW,225,7.0,12.0,68,0.00,,,0.00,WeatherCatV1.11B39,2013-02-27 16:40:00,
2013-02-27 11:45:00,44.2,34.3,29.80,South,189,6.0,6.0,68,0.00,,,0.00,WeatherCatV1.11B39,2013-02-27 16:45:00,
2013-02-27 11:50:00,44.3,34.4,29.80,ENE,64,10.0,15.0,68,0.00,,,0.00,WeatherCatV1.11B39,2013-02-27 16:50:00,
2013-02-27 11:55:00,44.6,34.7,29.80,ESE,115,8.0,16.0,68,0.00,,,0.00,WeatherCatV1.11B39,2013-02-27 16:55:00,
2013-02-27 12:00:00,44.7,34.8,29.80,ENE,61,14.0,16.0,68,0.00,,,0.00,WeatherCatV1.11B39,2013-02-27 17:00:00,
2013-02-27 12:05:00,45.0,35.1,29.80,NE,52,12.0,19.0,68,0.00,,,0.00,WeatherCatV1.11B39,2013-02-27 17:05:00,
2013-02-27 12:10:00,45.5,36.3,29.80,SE,124,2.0,6.0,70,0.00,,,0.00,WeatherCatV1.11B39,2013-02-27 17:10:00,
2013-02-27 12:15:00,46.0,34.9,29.80,East,89,5.0,18.0,65,0.00,,,0.00,WeatherCatV1.11B39,2013-02-27 17:15:00,
2013-02-27 12:20:00,45.9,35.2,29.80,East,98,5.0,13.0,66,0.00,,,0.00,WeatherCatV1.11B39,2013-02-27 17:20:00,
2013-02-27 12:25:00,46.1,36.1,29.80,East,82,8.0,11.0,68,0.00,,,0.00,WeatherCatV1.11B39,2013-02-27 17:25:00,
2013-02-27 12:30:00,46.5,35.0,29.79,SSW,197,11.0,12.0,64,0.00,,,0.00,WeatherCatV1.11B39,2013-02-27 17:30:00,
2013-02-27 12:35:00,46.7,35.2,29.79,East,88,5.0,11.0,64,0.00,,,0.00,WeatherCatV1.11B39,2013-02-27 17:35:00,
2013-02-27 12:40:00,46.9,35.0,29.79,NE,40,8.0,13.0,63,0.00,,,0.00,WeatherCatV1.11B39,2013-02-27 17:40:00,
2013-02-27 12:45:00,47.0,35.9,29.79,ENE,65,6.0,16.0,65,0.00,,,0.00,WeatherCatV1.11B39,2013-02-27 17:45:00,
2013-02-27 12:50:00,47.6,35.6,29.78,NE,34,0.0,9.0,63,0.00,,,0.00,WeatherCatV1.11B39,2013-02-27 17:50:00,
2013-02-27 12:55:00,47.6,35.2,29.78,ENE,58,6.0,16.0,62,0.00,,,0.00,WeatherCatV1.11B39,2013-02-27 17:55:00,
2013-02-27 13:00:00,47.8,36.2,29.78,ENE,61,15.0,15.0,64,0.00,,,0.00,WeatherCatV1.11B39,2013-02-27 18:00:00,
2013-02-27 13:05:00,47.8,36.6,29.77,NE,49,17.0,17.0,65,0.00,,,0.00,WeatherCatV1.11B39,2013-02-27 18:05:00,
2013-02-27 13:10:00,48.0,35.2,29.77,East,81,6.0,8.0,61,0.00,,,0.00,WeatherCatV1.11B39,2013-02-27 18:10:00,
2013-02-27 13:15:00,48.4,36.4,29.77,ENE,57,10.0,11.0,63,0.00,,,0.00,WeatherCatV1.11B39,2013-02-27 18:15:00,
2013-02-27 13:20:00,49.1,36.2,29.77,NE,51,6.0,8.0,61,0.00,,,0.00,WeatherCatV1.11B39,2013-02-27 18:20:00,
2013-02-27 13:25:00,49.6,35.9,29.77,ESE,123,7.0,9.0,59,0.00,,,0.00,WeatherCatV1.11B39,2013-02-27 18:25:00,
2013-02-27 13:30:00,49.6,35.4,29.78,NE,47,6.0,12.0,58,0.00,,,0.00,WeatherCatV1.11B39,2013-02-27 18:30:00,
2013-02-27 13:35:00,50.1,35.9,29.78,ENE,76,8.0,20.0,58,0.00,,,0.00,WeatherCatV1.11B39,2013-02-27 18:35:00,
2013-02-27 13:39:00,50.4,36.2,29.77,NE,49,17.0,17.0,58,0.00,,,0.00,WeatherCatV1.11B39,2013-02-27 18:39:00,
2013-02-27 13:44:00,50.4,36.2,29.77,NE,36,10.0,18.0,58,0.00,,,0.00,WeatherCatV1.11B39,2013-02-27 18:44:00,
2013-02-27 13:49:00,50.5,35.4,29.77,NE,39,9.0,11.0,56,0.00,,,0.00,WeatherCatV1.11B39,2013-02-27 18:49:00,
2013-02-27 13:54:00,50.7,36.0,29.77,NE,52,10.0,16.0,57,0.00,,,0.00,WeatherCatV1.11B39,2013-02-27 18:54:00,
2013-02-27 13:59:00,50.7,35.6,29.76,ENE,58,4.0,16.0,56,0.00,,,0.00,WeatherCatV1.11B39,2013-02-27 18:59:00,
2013-02-27 14:04:00,50.8,35.7,29.76,NE,51,7.0,15.0,56,0.00,,,0.00,WeatherCatV1.11B39,2013-02-27 19:04:00,
2013-02-27 14:09:00,50.7,36.0,29.76,NNE,32,11.0,13.0,57,0.00,,,0.00,WeatherCatV1.11B39,2013-02-27 19:09:00,
2013-02-27 14:14:00,51.5,37.2,29.76,NE,43,6.0,12.0,58,0.00,,,0.00,WeatherCatV1.11B39,2013-02-27 19:14:00,
2013-02-27 14:19:00,51.7,36.1,29.76,NE,46,7.0,7.0,55,0.00,,,0.00,WeatherCatV1.11B39,2013-02-27 19:19:00,
2013-02-27 14:24:00,52.2,36.5,29.76,East,88,6.0,12.0,55,0.00,,,0.00,WeatherCatV1.11B39,2013-02-27 19:24:00,
2013-02-27 14:29:00,52.2,36.1,29.76,ENE,57,17.0,19.0,54,0.00,,,0.00,WeatherCatV1.11B39,2013-02-27 19:29:00,
2013-02-27 14:34:00,52.1,35.5,29.75,ENE,76,8.0,19.0,53,0.00,,,0.00,WeatherCatV1.11B39,2013-02-27 19:34:00,
2013-02-27 14:39:00,52.2,36.5,29.75,ENE,59,5.0,19.0,55,0.00,,,0.00,WeatherCatV1.11B39,2013-02-27 19:39:00,
2013-02-27 14:44:00,52.6,36.0,29.75,NE,46,11.0,14.0,53,0.00,,,0.00,WeatherCatV1.11B39,2013-02-27 19:44:00,
2013-02-27 14:49:00,52.4,35.8,29.75,East,84,13.0,21.0,53,0.00,,,0.00,WeatherCatV1.11B39,2013-02-27 19:49:00,
2013-02-27 14:54:00,52.2,35.1,29.75,ENE,63,13.0,14.0,52,0.00,,,0.00,WeatherCatV1.11B39,2013-02-27 19:54:00,
2013-02-27 14:59:00,52.4,35.3,29.75,East,89,7.0,13.0,52,0.00,,,0.00,WeatherCatV1.11B39,2013-02-27 19:59:00,
2013-02-27 15:04:00,52.9,36.2,29.75,ENE,69,8.0,14.0,53,0.00,,,0.00,WeatherCatV1.11B39,2013-02-27 20:04:00,
2013-02-27 15:09:00,52.5,34.9,29.75,ENE,63,13.0,16.0,51,0.00,,,0.00,WeatherCatV1.11B39,2013-02-27 20:09:00,
2013-02-27 15:14:00,52.3,34.2,29.75,NE,55,8.0,12.0,50,0.00,,,0.00,WeatherCatV1.11B39,2013-02-27 20:14:00,
2013-02-27 15:19:00,52.4,34.3,29.75,ENE,58,13.0,18.0,50,0.00,,,0.00,WeatherCatV1.11B39,2013-02-27 20:19:00,
2013-02-27 15:24:00,52.3,34.7,29.75,ENE,64,12.0,18.0,51,0.00,,,0.00,WeatherCatV1.11B39,2013-02-27 20:24:00,
2013-02-27 15:29:00,52.7,34.6,29.75,East,86,8.0,13.0,50,0.00,,,0.00,WeatherCatV1.11B39,2013-02-27 20:29:00,
2013-02-27 15:34:00,52.8,34.2,29.75,SE,133,8.0,15.0,49,0.00,,,0.00,WeatherCatV1.11B39,2013-02-27 20:34:00,
2013-02-27 15:39:00,52.9,33.2,29.75,ESE,119,8.0,21.0,47,0.00,,,0.00,WeatherCatV1.11B39,2013-02-27 20:39:00,
2013-02-27 15:44:00,53.1,33.9,29.74,SE,139,8.0,14.0,48,0.00,,,0.00,WeatherCatV1.11B39,2013-02-27 20:44:00,
2013-02-27 15:49:00,53.2,34.0,29.74,ESE,104,14.0,22.0,48,0.00,,,0.00,WeatherCatV1.11B39,2013-02-27 20:49:00,
2013-02-27 15:54:00,53.2,35.0,29.74,ENE,67,18.0,20.0,50,0.00,,,0.00,WeatherCatV1.11B39,2013-02-27 20:54:00,
2013-02-27 15:59:00,53.2,35.0,29.74,SE,126,13.0,13.0,50,0.00,,,0.00,WeatherCatV1.11B39,2013-02-27 20:59:00,
2013-02-27 16:04:00,53.3,35.6,29.74,ENE,57,11.0,11.0,51,0.00,,,0.00,WeatherCatV1.11B39,2013-02-27 21:04:00,
2013-02-27 16:09:00,53.5,34.8,29.74,ESE,105,5.0,12.0,49,0.00,,,0.00,WeatherCatV1.11B39,2013-02-27 21:09:00,
2013-02-27 16:14:00,53.4,35.2,29.74,ENE,59,20.0,22.0,50,0.00,,,0.00,WeatherCatV1.11B39,2013-02-27 21:14:00,
2013-02-27 16:19:00,53.0,34.4,29.74,NE,55,11.0,15.0,49,0.00,,,0.00,WeatherCatV1.11B39,2013-02-27 21:19:00,
2013-02-27 16:24:00,53.1,35.0,29.74,NE,53,8.0,11.0,50,0.00,,,0.00,WeatherCatV1.11B39,2013-02-27 21:24:00,
2013-02-27 16:29:00,53.4,34.2,29.74,NE,40,14.0,19.0,48,0.00,,,0.00,WeatherCatV1.11B39,2013-02-27 21:29:00,
2013-02-27 16:34:00,53.5,33.8,29.74,SE,142,12.0,14.0,47,0.00,,,0.00,WeatherCatV1.11B39,2013-02-27 21:34:00,
2013-02-27 16:39:00,53.2,33.0,29.74,East,88,4.0,19.0,46,0.00,,,0.00,WeatherCatV1.11B39,2013-02-27 21:39:00,
2013-02-27 16:44:00,53.1,34.4,29.75,SSE,161,2.0,18.0,49,0.00,,,0.00,WeatherCatV1.11B39,2013-02-27 21:44:00,
2013-02-27 16:49:00,53.2,34.0,29.75,SSE,157,12.0,14.0,48,0.00,,,0.00,WeatherCatV1.11B39,2013-02-27 21:49:00,
2013-02-27 16:54:00,53.2,34.0,29.75,SE,140,5.0,8.0,48,0.00,,,0.00,WeatherCatV1.11B39,2013-02-27 21:54:00,
2013-02-27 16:59:00,53.4,33.7,29.75,ENE,67,5.0,15.0,47,0.00,,,0.00,WeatherCatV1.11B39,2013-02-27 21:59:00,
2013-02-27 17:04:00,53.4,33.1,29.75,South,178,13.0,14.0,46,0.00,,,0.00,WeatherCatV1.11B39,2013-02-27 22:04:00,
2013-02-27 17:09:00,53.3,33.1,29.75,SE,140,8.0,16.0,46,0.00,,,0.00,WeatherCatV1.11B39,2013-02-27 22:09:00,
2013-02-27 17:14:00,53.0,33.3,29.75,ESE,119,14.0,19.0,47,0.00,,,0.00,WeatherCatV1.11B39,2013-02-27 22:14:00,
2013-02-27 17:19:00,52.8,33.1,29.74,SE,144,9.0,18.0,47,0.00,,,0.00,WeatherCatV1.11B39,2013-02-27 22:19:00,
2013-02-27 17:24:00,52.7,33.0,29.75,SSE,150,16.0,16.0,47,0.00,,,0.00,WeatherCatV1.11B39,2013-02-27 22:24:00,
2013-02-27 17:29:00,52.6,33.5,29.75,ENE,61,1.0,7.0,48,0.00,,,0.00,WeatherCatV1.11B39,2013-02-27 22:29:00,
2013-02-27 17:34:00,52.6,33.0,29.75,East,88,6.0,14.0,47,0.00,,,0.00,WeatherCatV1.11B39,2013-02-27 22:34:00,
2013-02-27 17:39:00,52.5,33.4,29.75,ENE,59,6.0,14.0,48,0.00,,,0.00,WeatherCatV1.11B39,2013-02-27 22:39:00,
2013-02-27 17:44:00,52.4,33.8,29.75,SE,144,7.0,7.0,49,0.00,,,0.00,WeatherCatV1.11B39,2013-02-27 22:44:00,
2013-02-27 17:49:00,52.1,33.5,29.76,ESE,117,15.0,27.0,49,0.00,,,0.00,WeatherCatV1.11B39,2013-02-27 22:49:00,
2013-02-27 17:54:00,51.8,33.8,29.76,SSE,157,12.0,14.0,50,0.00,,,0.00,WeatherCatV1.11B39,2013-02-27 22:54:00,
2013-02-27 17:59:00,51.7,33.2,29.76,SSE,154,17.0,20.0,49,0.00,,,0.00,WeatherCatV1.11B39,2013-02-27 22:59:00,
2013-02-27 18:04:00,51.6,33.1,29.76,SSE,159,7.0,20.0,49,0.00,,,0.00,WeatherCatV1.11B39,2013-02-27 23:04:00,
2013-02-27 18:09:00,51.4,33.4,29.76,ESE,107,5.0,14.0,50,0.00,,,0.00,WeatherCatV1.11B39,2013-02-27 23:09:00,
2013-02-27 18:14:00,51.2,33.7,29.76,South,172,8.0,8.0,51,0.00,,,0.00,WeatherCatV1.11B39,2013-02-27 23:14:00,
2013-02-27 18:19:00,51.1,33.6,29.76,ESE,107,7.0,9.0,51,0.00,,,0.00,WeatherCatV1.11B39,2013-02-27 23:19:00,
2013-02-27 18:24:00,51.0,33.5,29.76,SE,128,6.0,7.0,51,0.00,,,0.00,WeatherCatV1.11B39,2013-02-27 23:24:00,
2013-02-27 18:29:00,50.8,33.8,29.76,SE,144,5.0,8.0,52,0.00,,,0.00,WeatherCatV1.11B39,2013-02-27 23:29:00,
2013-02-27 18:34:00,50.7,33.7,29.76,SE,140,2.0,7.0,52,0.00,,,0.00,WeatherCatV1.11B39,2013-02-27 23:34:00,
2013-02-27 18:38:00,50.5,34.0,29.76,East,86,6.0,7.0,53,0.00,,,0.00,WeatherCatV1.11B39,2013-02-27 23:38:00,
2013-02-27 18:43:00,50.4,33.9,29.76,SSE,158,2.0,4.0,53,0.00,,,0.00,WeatherCatV1.11B39,2013-02-27 23:43:00,
2013-02-27 18:48:00,50.2,33.7,29.76,SE,130,2.0,7.0,53,0.00,,,0.00,WeatherCatV1.11B39,2013-02-27 23:48:00,
2013-02-27 18:53:00,50.1,34.1,29.76,East,98,4.0,6.0,54,0.00,,,0.00,WeatherCatV1.11B39,2013-02-27 23:53:00,
2013-02-27 18:58:00,50.0,34.5,29.76,ESE,123,2.0,5.0,55,0.00,,,0.00,WeatherCatV1.11B39,2013-02-27 23:58:00,
2013-02-27 19:03:00,49.9,34.4,29.76,East,98,5.0,7.0,55,0.00,,,0.00,WeatherCatV1.11B39,2013-02-28 00:03:00,
2013-02-27 19:08:00,49.8,34.3,29.76,SE,138,4.0,6.0,55,0.00,,,0.00,WeatherCatV1.11B39,2013-02-28 00:08:00,
2013-02-27 19:13:00,49.7,34.6,29.76,SE,144,4.0,4.0,56,0.00,,,0.00,WeatherCatV1.11B39,2013-02-28 00:13:00,
2013-02-27 19:18:00,49.6,34.6,29.76,SE,143,1.0,1.0,56,0.00,,,0.00,WeatherCatV1.11B39,2013-02-28 00:18:00,
2013-02-27 19:23:00,49.5,34.5,29.76,SE,146,4.0,4.0,56,0.00,,,0.00,WeatherCatV1.11B39,2013-02-28 00:23:00,
2013-02-27 19:28:00,49.4,34.8,29.76,SE,146,2.0,2.0,57,0.00,,,0.00,WeatherCatV1.11B39,2013-02-28 00:28:00,
2013-02-27 19:33:00,49.1,34.5,29.76,ESE,120,2.0,5.0,57,0.00,,,0.00,WeatherCatV1.11B39,2013-02-28 00:33:00,
2013-02-27 19:38:00,48.9,34.8,29.75,NE,53,3.0,3.0,58,0.00,,,0.00,WeatherCatV1.11B39,2013-02-28 00:38:00,
2013-02-27 19:43:00,48.8,34.7,29.75,ENE,65,3.0,6.0,58,0.00,,,0.00,WeatherCatV1.11B39,2013-02-28 00:43:00,
2013-02-27 19:48:00,48.8,35.1,29.75,ENE,67,0.0,2.0,59,0.00,,,0.00,WeatherCatV1.11B39,2013-02-28 00:48:00,
2013-02-27 19:53:00,48.8,35.1,29.76,ENE,67,1.0,1.0,59,0.00,,,0.00,WeatherCatV1.11B39,2013-02-28 00:53:00,
2013-02-27 19:58:00,48.8,35.1,29.76,East,96,1.0,1.0,59,0.00,,,0.00,WeatherCatV1.11B39,2013-02-28 00:58:00,
2013-02-27 20:03:00,48.7,35.4,29.76,East,93,0.0,1.0,60,0.00,,,0.00,WeatherCatV1.11B39,2013-02-28 01:03:00,
2013-02-27 20:08:00,48.6,35.3,29.76,ESE,105,1.0,4.0,60,0.00,,,0.00,WeatherCatV1.11B39,2013-02-28 01:08:00,
2013-02-27 20:13:00,48.6,35.3,29.76,ESE,117,1.0,7.0,60,0.00,,,0.00,WeatherCatV1.11B39,2013-02-28 01:13:00,
2013-02-27 20:18:00,48.7,35.4,29.75,ESE,113,2.0,7.0,60,0.00,,,0.00,WeatherCatV1.11B39,2013-02-28 01:18:00,
2013-02-27 20:23:00,48.7,35.4,29.75,East,79,1.0,4.0,60,0.00,,,0.00,WeatherCatV1.11B39,2013-02-28 01:23:00,
2013-02-27 20:28:00,48.6,35.3,29.75,ESE,105,1.0,5.0,60,0.00,,,0.00,WeatherCatV1.11B39,2013-02-28 01:28:00,
2013-02-27 20:33:00,48.6,35.8,29.75,ESE,107,0.0,1.0,61,0.00,,,0.00,WeatherCatV1.11B39,2013-02-28 01:33:00,
2013-02-27 20:38:00,48.5,35.7,29.75,ESE,105,2.0,4.0,61,0.00,,,0.00,WeatherCatV1.11B39,2013-02-28 01:38:00,
2013-02-27 20:43:00,48.3,35.5,29.75,ESE,109,4.0,4.0,61,0.00,,,0.00,WeatherCatV1.11B39,2013-02-28 01:43:00,
2013-02-27 20:48:00,48.2,35.4,29.75,SSE,164,6.0,6.0,61,0.00,,,0.00,WeatherCatV1.11B39,2013-02-28 01:48:00,
2013-02-27 20:53:00,48.3,35.9,29.75,SE,134,5.0,5.0,62,0.00,,,0.00,WeatherCatV1.11B39,2013-02-28 01:53:00,
2013-02-27 20:58:00,48.3,35.9,29.75,SE,130,4.0,7.0,62,0.00,,,0.00,WeatherCatV1.11B39,2013-02-28 01:58:00,
2013-02-27 21:03:00,48.2,36.2,29.75,SE,126,4.0,5.0,63,0.00,,,0.00,WeatherCatV1.11B39,2013-02-28 02:03:00,
2013-02-27 21:08:00,48.2,35.8,29.75,SSE,165,6.0,6.0,62,0.00,,,0.00,WeatherCatV1.11B39,2013-02-28 02:08:00,
2013-02-27 21:13:00,48.2,35.8,29.75,SSE,167,2.0,6.0,62,0.00,,,0.00,WeatherCatV1.11B39,2013-02-28 02:13:00,
2013-02-27 21:18:00,48.3,35.5,29.75,SSE,162,2.0,5.0,61,0.00,,,0.00,WeatherCatV1.11B39,2013-02-28 02:18:00,
2013-02-27 21:23:00,48.2,35.8,29.75,SSE,161,1.0,6.0,62,0.00,,,0.00,WeatherCatV1.11B39,2013-02-28 02:23:00,
2013-02-27 21:28:00,48.2,35.8,29.75,ESE,123,4.0,4.0,62,0.00,,,0.00,WeatherCatV1.11B39,2013-02-28 02:28:00,
2013-02-27 21:33:00,48.2,36.2,29.76,SSE,154,2.0,4.0,63,0.00,,,0.00,WeatherCatV1.11B39,2013-02-28 02:33:00,
2013-02-27 21:38:00,48.2,35.8,29.75,SE,130,1.0,6.0,62,0.00,,,0.00,WeatherCatV1.11B39,2013-02-28 02:38:00,
2013-02-27 21:43:00,48.3,35.5,29.75,ESE,118,4.0,8.0,61,0.00,,,0.00,WeatherCatV1.11B39,2013-02-28 02:43:00,
2013-02-27 21:48:00,48.4,36.0,29.75,SSE,168,4.0,5.0,62,0.00,,,0.00,WeatherCatV1.11B39,2013-02-28 02:48:00,
2013-02-27 21:53:00,48.4,35.6,29.75,ESE,123,6.0,12.0,61,0.00,,,0.00,WeatherCatV1.11B39,2013-02-28 02:53:00,
2013-02-27 21:58:00,48.5,35.7,29.76,South,171,9.0,16.0,61,0.00,,,0.00,WeatherCatV1.11B39,2013-02-28 02:58:00,
2013-02-27 22:03:00,48.7,35.9,29.76,SSE,166,8.0,9.0,61,0.00,,,0.00,WeatherCatV1.11B39,2013-02-28 03:03:00,
2013-02-27 22:08:00,48.6,35.8,29.76,SSW,194,8.0,9.0,61,0.00,,,0.00,WeatherCatV1.11B39,2013-02-28 03:08:00,
2013-02-27 22:13:00,48.3,36.3,29.76,SE,128,5.0,11.0,63,0.00,,,0.00,WeatherCatV1.11B39,2013-02-28 03:13:00,
2013-02-27 22:18:00,48.0,36.4,29.76,South,186,10.0,14.0,64,0.00,,,0.00,WeatherCatV1.11B39,2013-02-28 03:18:00,
2013-02-27 22:23:00,47.7,36.9,29.76,South,183,7.0,11.0,66,0.00,,,0.00,WeatherCatV1.11B39,2013-02-28 03:23:00,
2013-02-27 22:28:00,47.4,37.0,29.76,South,180,7.0,12.0,67,0.00,,,0.00,WeatherCatV1.11B39,2013-02-28 03:28:00,
2013-02-27 22:33:00,47.1,37.1,29.76,ESE,123,11.0,11.0,68,0.00,,,0.00,WeatherCatV1.11B39,2013-02-28 03:33:00,
2013-02-27 22:38:00,46.9,36.9,29.76,East,101,5.0,5.0,68,0.00,,,0.00,WeatherCatV1.11B39,2013-02-28 03:38:00,
2013-02-27 22:43:00,46.7,37.1,29.76,SSE,153,5.0,12.0,69,0.00,,,0.00,WeatherCatV1.11B39,2013-02-28 03:43:00,
2013-02-27 22:48:00,46.5,36.9,29.76,SE,140,4.0,8.0,69,0.00,,,0.00,WeatherCatV1.11B39,2013-02-28 03:48:00,
2013-02-27 22:53:00,46.4,37.2,29.76,SSE,159,5.0,7.0,70,0.00,,,0.00,WeatherCatV1.11B39,2013-02-28 03:53:00,
2013-02-27 22:58:00,46.3,37.1,29.76,South,171,5.0,7.0,70,0.00,,,0.00,WeatherCatV1.11B39,2013-02-28 03:58:00,
2013-02-27 23:03:00,46.2,37.3,29.76,SSE,148,1.0,8.0,71,0.00,,,0.00,WeatherCatV1.11B39,2013-02-28 04:03:00,
2013-02-27 23:08:00,46.0,37.5,29.76,SSW,206,2.0,5.0,72,0.00,,,0.00,WeatherCatV1.11B39,2013-02-28 04:08:00,
2013-02-27 23:13:00,45.9,37.4,29.76,SSW,199,8.0,11.0,72,0.00,,,0.00,WeatherCatV1.11B39,2013-02-28 04:13:00,
2013-02-27 23:18:00,45.6,37.8,29.76,SSW,212,5.0,7.0,74,0.00,,,0.00,WeatherCatV1.11B39,2013-02-28 04:18:00,
2013-02-27 23:23:00,45.4,37.6,29.76,SSW,194,16.0,16.0,74,0.00,,,0.00,WeatherCatV1.11B39,2013-02-28 04:23:00,
2013-02-27 23:28:00,45.3,37.5,29.76,SE,132,7.0,7.0,74,0.00,,,0.00,WeatherCatV1.11B39,2013-02-28 04:28:00,
2013-02-27 23:33:00,45.3,37.2,29.76,South,181,4.0,7.0,73,0.00,,,0.00,WeatherCatV1.11B39,2013-02-28 04:33:00,
2013-02-27 23:37:00,45.3,36.5,29.76,South,178,9.0,11.0,71,0.00,,,0.00,WeatherCatV1.11B39,2013-02-28 04:37:00,
2013-02-27 23:42:00,45.3,36.1,29.77,SE,140,18.0,18.0,70,0.00,,,0.00,WeatherCatV1.11B39,2013-02-28 04:42:00,
2013-02-27 23:47:00,45.2,35.6,29.76,East,80,5.0,11.0,69,0.00,,,0.00,WeatherCatV1.11B39,2013-02-28 04:47:00,
2013-02-27 23:52:00,45.1,35.5,29.76,SE,128,9.0,9.0,69,0.00,,,0.00,WeatherCatV1.11B39,2013-02-28 04:52:00,
2013-02-27 23:57:00,45.0,35.1,29.76,SE,140,5.0,7.0,68,0.00,,,0.00,WeatherCatV1.11B39,2013-02-28 04:57:00,